SHIJIAN 6 01A (SJ-6 01A)

导读 | 星芒AI

SHIJIAN 6 01A(SJ-6 01A)是中国研制的一颗试验卫星,主要用于空间环境探测和新技术验证。该卫星属于实践六号系列,于2007年发射,运行在低地球轨道。SJ-6 01A与01B卫星组成双星系统,协同进行科学探测任务。卫星搭载多种有效载荷,用于监测空间辐射、粒子环境及大气参数,为后续卫星工程和空间科学研究提供数据支持。

基本信息
目录编号:
28413
目录名称:
SHIJIAN 6 01A (SJ-6 01A)
国际标识:
2004-035A
轨道中心:
EARTH
卫星名称:
SHIJIAN 6 01A (SJ-6 01A)
卫星全名:
--
卫星状态:
在轨 (已飞行7721 天)
发射日期:
2004-09-08 UTC
国别 :
中国 (CN)
星等 :
--
轨道信息
数据来源 国际轨道数据 AOE轨道数据
星历时间 2025-10-28T19:49:46+0800
21小时前
查看轨道信息
2025-10-27T20:00:00+0800
1天前
查看轨道信息
半长轴 6903.073km 6903.137km
偏心率 0.0005807 0.0005625
轨道倾角 97.611° 97.613°
近地点辐角 203.668° 204.561°
升交点赤经 323.373° 322.380°
平近点角 156.429° 148.385°
近地点 520.929km 521.118km
远地点 528.947km 528.886km
周期 95.131分钟 95.133分钟
每日圈数 15.136974 15.136766
详细信息
使用方式:
暂无
2D轨道图
3D轨道图
轨道高度分析图
轨道倾角分析图
轨道综合分析图
查看轨道综合分析图